Location: Newark
(45.8378°N, 5.5389°E)
Time: 22:46:02
(UTC+00:00)

YUBILEINY - Pass Details

Date: 24 December 2019
Orbit: 1478 x 1509 km, 82.5° (Epoch: 21 January)

Event Time Altitude Azimuth Distance (km) Brightness Sun altitude
Rises 03:48:32 0° 358° (N) 4,611 ? -35.2°
Reaches altitude 10° 03:54:40 10° 30° (NNE) 3,630 ? -34.2°
Maximum altitude 03:57:08 11° 47° (NE) 3,526 ? -33.7°
Drops below altitude 10° 03:59:37 10° 64° (ENE) 3,630 ? -33.3°
Sets 04:05:42 0° 97° (E) 4,611 ? -32.2°
